sat.trackr.live / text

‹ back to catalog

STARLINK-34199

NORAD 64924 · 2025-157W

PAYLOAD ACTIVE UNKNOWN

§ Identity

Operator
Country
US
Launch date
2025-07-26
Launch site
AFETR
Launch vehicle
Mass (kg)
RCS (m²)

Purposes: comms

External: N2YO · Heavens-Above · Gunter

§ Orbital elements

Epoch: 2026-05-24T23:53:24.078048Z

Period
94.01 min
Inclination
53.1573°
Eccentricity
0.0000742
Mean motion
15.31710424 rev/d
Perigee alt
470.2 km
Apogee alt
471.2 km
Semi-major
6,848.8 km
B*
3.0538e-4
RAAN
350.7272°
Arg perigee
68.3008°
Mean anomaly
291.8073°
Rev number
4,776

§ Raw data

STARLINK-341991 64924U 25157W   26144.99541757  .00009126  00000+0  30538-3 0  99982 64924  53.1573 350.7272 0000742  68.3008 291.8073 15.31710424 47767

JSON: /api/v1/satellites/64924 · /tle

For live sub-satellite position, see the globe view (requires WebGL).

§ Visibility from observer

Set your observer location to see the next 7 days of passes ≥ 10°. The values pass through the URL so the page stays shareable.

No JS? Fill the form by hand. The geolocation button needs JavaScript.